Regional Weather Roundup
Issued by NWS

Home | Current Version | Previous Version | Text Only | Print | Product List | Glossary On
Versions: 1 2 3 4 5 6 7 8 9 10 11 12 13 14 15 16 17 18 19 20 21 22 23 24 25 26 27 28 29 30 31 32 33 34 35 36 37 38 39 40 41 42 43 44 45 46 47 48 49 50
000
ASUS44 KJAN 282210
RWRMS

MISSISSIPPI HOURLY WEATHER ROUNDUP
NATIONAL WEATHER SERVICE JACKSON MS
400 PM CST FRI NOV 28 2014

NOTE: "FAIR: INDICATES FEW OR NO CLOUDS BELOW 12,000 FEET WITH NO
SIGNIFICANT WEATHER AND/OR OBSTRUCTIONS TO VISIBILITY.

MSZ001>002-007>008-010>013-018>021-025>028-034>036-282300-
NORTHWEST MISSISSIPPI

CITY           SKY/WX    TMP DP  RH WIND       PRES   REMARKS
CLARKSDALE     FAIR      54  32  43 S13       30.20F
CLEVELAND      FAIR      55  36  50 S12       30.19F
GREENWOOD      CLEAR     58  24  27 S12       30.22F
GREENVILLE     CLEAR     58  28  32 S16       30.19F
GRENADA        FAIR      55  27  33 S7        30.23S
OLIVE BRANCH   CLEAR     52  28  40 S14       30.18F
OXFORD         FAIR      52  27  37 S8        30.23S
TUNICA         CLEAR     52  32  46 S14G22    30.18F
$$

MSZ003>006-009-014>017-022>024-029>033-037>039-282300-
NORTHEAST MISSISSIPPI

CITY           SKY/WX    TMP DP  RH WIND       PRES   REMARKS
COLUMBUS AFB   CLEAR     53  24  32 S6        30.26F
CORINTH        FAIR      52  27  37 S10       30.21F
GOLDN TRIANGLE CLEAR     52  27  37 S9        30.26F
STARKVILLE     FAIR      52  30  43 SE7       30.25F
TUPELO         CLEAR     50  28  42 MISG      30.24F
$$

MSZ040-058-282300-
CENTRAL MISSISSIPPI

CITY           SKY/WX    TMP DP  RH WIND       PRES   REMARKS
JACKSON INTL   CLEAR     59  23  25 S8        30.25F
JACKSON HAWKNS CLEAR     58  24  27 S9        30.25F
MERIDIAN KEY   CLEAR     56  24  29 S9        30.27F
MERIDIAN NAS   CLEAR     55  24  30 SE6       30.28F
RAYMOND        FAIR      59  55  88 S7        30.24F
VICKSBURG      SUNNY     61  25  25 S10       30.23F
$$

MSZ059>079-282300-
SOUTH MISSISSIPPI

CITY           SKY/WX    TMP DP  RH WIND       PRES   REMARKS
BROOKHAVEN     FAIR      59  28  31 SE7       30.27F
HATTIESBURG    CLEAR     60  26  27 S7        30.29F
MCCOMB         SUNNY     58  28  32 S9        30.27F
NATCHEZ        SUNNY     61  28  29 S9        30.25F
PINE BELT      CLEAR     57  25  28 SE3       30.30S
$$

MSZ080>082-282300-
COASTAL MISSISSIPPI

CITY           SKY/WX    TMP DP  RH WIND       PRES   REMARKS
BAY ST LOUIS   CLEAR     55  28  35 S6        30.31F
BILOXI         CLEAR     54  34  46 S6        30.30F
PASCAGOULA     CLEAR     56  34  43 S6        30.30F
GULFPORT       CLEAR     53  35  50 S7        30.30F
$$



USA.gov is the U.S. government's official web portal to all federal, state and local government web resources and services.